Latest Weather Observations for Cooma Airport

IDN60901

Issued at 10:45 pm EST Wednesday 1 October 2014 (issued every 10 minutes, with the page automatically refreshed every 10 minutes)

About weather observations | Map of Canberra area stations | Latest observations for Canberra area | Other Formats
Station Details ID: 070217 Name: COOMA AIRPORT AWS Lat: -36.29 Lon: 148.97 Height: 930.0 m
Data from the previous 72 hours. | See also: Recent months for locations in Aust Capital Territory
Date/Time
EST
Tmp

°C
App
Tmp
°C
Dew
Point
°C
Rel
Hum
%
Delta-T

°C
Wind Press
QNH
hPa
Press
MSL
hPa
Rain
since
9 am
mm
Dir
 
Spd
km/h
Gust
km/h
Spd
kts
Gust
kts
01/10:30pm 0.6 -4.4 -1.3 87 0.7 SW 15 15 8 8 1022.9 1021.9 0.0
01/10:00pm 1.0 -3.9 -0.6 89 0.6 WSW 15 17 8 9 1022.9 1021.9 0.0
01/09:30pm -1.2 -5.6 -2.5 91 0.4 SW 11 13 6 7 1023.0 1022.0 0.0
01/09:00pm -0.9 -5.4 -2.9 86 0.7 SW 11 13 6 7 1022.6 1021.6 0.0
01/08:30pm 0.0 -2.7 -2.1 86 0.8 SW 2 7 1 4 1022.3 1021.4 0.0
01/08:00pm 0.5 -2.1 -2.0 83 0.9 E 2 7 1 4 1022.0 1021.0 0.0
01/07:30pm -0.1 -4.2 -2.8 82 1.0 SW 9 11 5 6 1021.8 1020.8 0.0
01/07:00pm 4.2 0.3 -1.6 66 2.2 SW 9 11 5 6 1021.3 1020.2 0.0
01/06:30pm 5.2 3.0 -1.5 62 2.6 CALM 0 0 0 0 1020.8 1019.8 0.0
01/06:00pm 5.6 1.0 -0.9 63 2.6 S 13 19 7 10 1020.4 1019.3 0.0
01/05:30pm 7.7 1.8 -0.8 55 3.5 SSW 20 26 11 14 1019.8 1018.8 0.0
01/05:00pm 9.0 3.0 -1.7 47 4.3 SSW 20 28 11 15 1019.6 1018.6 0.0
01/04:30pm 9.5 3.2 -1.2 47 4.4 SSW 22 30 12 16 1019.4 1018.3 0.0
01/04:00pm 9.8 2.9 -2.8 41 5.0 SSW 24 35 13 19 1019.4 1018.3 0.0
01/03:30pm 9.8 2.2 -2.2 43 4.8 SSW 28 35 15 19 1019.6 1018.6 0.0
01/03:00pm 9.9 1.9 -2.1 43 4.9 SSW 30 37 16 20 1019.2 1018.1 0.0
01/02:30pm 9.8 -0.3 -2.2 43 4.8 S 41 52 22 28 1018.8 1017.8 0.0
01/02:00pm 8.9 0.5 -2.1 46 4.4 SSW 32 43 17 23 1019.1 1018.0 0.0
01/01:30pm 9.8 1.6 -1.0 47 4.5 SSW 32 44 17 24 1018.8 1017.8 0.0
01/01:00pm 9.5 0.6 -1.8 45 4.6 SSW 35 54 19 29 1019.0 1017.9 0.0
01/12:59pm 9.7 0.8 -1.6 45 4.6 SSW 35 54 19 29 1018.8 1017.8 0.0
01/12:30pm 9.2 -0.4 -1.8 46 4.5 SSW 39 52 21 28 1019.0 1017.9 0.0
01/12:19pm 9.3 0.0 -2.0 45 4.6 SW 37 57 20 31 1018.7 1017.7 0.0
01/12:00pm 8.4 -0.5 -2.0 48 4.2 SSW 35 44 19 24 1019.0 1017.9 0.0
01/11:34am 8.3 -0.6 -1.8 49 4.1 SSW 35 54 19 29 1018.8 1017.8 0.0
01/11:30am 8.1 -0.9 -2.8 46 4.3 SSW 35 52 19 28 1018.8 1017.8 0.0
01/11:00am 7.9 -2.5 -2.1 49 4.0 SSW 43 63 23 34 1019.0 1017.9 0.0
01/10:51am 7.6 -2.6 -3.3 46 4.2 SSW 41 63 22 34 1018.7 1017.7 0.0
01/10:30am 7.6 -2.5 -2.1 50 3.8 SSW 41 54 22 29 1019.0 1017.9 0.0
01/10:00am 6.8 -2.3 -3.7 47 4.0 SSW 35 46 19 25 1018.8 1017.8 0.0
01/09:53am 6.7 -2.2 -1.9 54 3.4 SSW 35 54 19 29 1018.8 1018.8 0.0
01/09:30am 7.1 -0.9 -2.3 51 3.7 SW 30 43 16 23 1018.4 1018.4 0.0
01/09:00am 6.6 -1.7 -1.8 55 3.3 SSW 32 41 17 22 1018.1 1018.1 1.0
01/08:30am 5.9 -3.1 -2.4 55 3.2 SSW 35 44 19 24 1017.6 1017.6 1.0
01/08:00am 5.0 -3.7 -3.8 53 3.2 SW 33 43 18 23 1017.2 1017.2 1.0
01/07:30am 4.5 -4.5 -2.8 59 2.7 SW 35 46 19 25 1016.7 1016.6 1.0
01/07:00am 3.1 -3.9 -3.5 62 2.4 WSW 24 33 13 18 1016.3 1016.3 1.0
01/06:30am 2.8 -3.3 -3.5 63 2.3 WSW 19 26 10 14 1015.9 1015.8 1.0
01/06:00am 2.4 -4.3 -4.3 61 2.4 WSW 22 32 12 17 1015.1 1015.0 1.0
01/05:30am 2.5 -3.7 -4.5 60 2.5 W 19 32 10 17 1014.4 1014.3 1.0
01/05:00am 2.1 -3.7 -4.2 63 2.3 W 17 22 9 12 1013.8 1013.7 1.0
01/04:30am 0.6 -4.4 -3.9 72 1.6 WSW 13 19 7 10 1013.6 1013.5 1.0
01/04:00am 1.6 -4.2 -4.5 64 2.2 W 17 20 9 11 1012.8 1012.7 1.0
01/03:30am 2.2 -3.5 -3.7 65 2.1 W 17 22 9 12 1012.2 1012.0 1.0
01/03:00am 3.0 -3.3 -3.6 62 2.4 W 20 28 11 15 1011.8 1011.7 1.0
01/02:30am 3.6 -3.5 -4.1 57 2.8 W 24 32 13 17 1011.4 1011.2 0.8
01/02:00am 4.3 -2.4 -3.9 55 3.0 W 22 33 12 18 1011.3 1011.1 0.8
01/01:30am 4.5 -1.0 -2.4 61 2.6 W 17 24 9 13 1011.2 1011.0 0.8
01/01:00am 5.0 -1.0 -1.9 61 2.7 W 20 28 11 15 1011.2 1011.0 0.8
01/12:30am 6.3 -0.5 -1.6 57 3.1 W 24 43 13 23 1010.7 1010.6 0.8
01/12:00am 7.4 1.1 1.3 65 2.6 W 24 35 13 19 1010.3 1010.1 0.8
 
Date/Time
EST
Tmp

°C
App
Tmp
°C
Dew
Point
°C
Rel
Hum
%
Delta-T

°C
Wind Press
QNH
hPa
Press
MSL
hPa
Rain
since
9 am
mm
Dir
 
Spd
km/h
Gust
km/h
Spd
kts
Gust
kts
30/11:38pm 7.3 0.5 3.2 75 1.8 W 28 46 15 25 1010.3 1010.1 0.8
30/11:30pm 7.7 -0.1 3.0 72 2.1 W 33 46 18 25 1010.7 1010.6 0.8
30/11:00pm 8.8 1.3 4.2 73 2.1 W 33 50 18 27 1010.2 1010.0 0.6
30/10:53pm 9.4 2.9 4.8 73 2.2 W 28 48 15 26 1010.4 1010.2 0.4
30/10:30pm 10.5 4.1 5.3 70 2.5 W 28 44 15 24 1009.5 1009.3 0.2
30/10:00pm 11.6 6.2 6.3 70 2.6 W 24 37 13 20 1009.1 1008.9 0.2
30/09:41pm 12.1 5.1 6.2 67 2.9 WNW 32 41 17 22 1008.7 1008.4 0.0
30/09:30pm 12.2 8.8 5.8 65 3.2 NW 13 20 7 11 1008.2 1008.0 0.0
30/09:00pm 11.9 5.2 5.5 65 3.1 NW 30 43 16 23 1008.4 1008.2 0.0
30/08:30pm 13.8 5.9 4.4 53 4.6 WNW 35 63 19 34 1009.3 1009.1 0.0
30/08:28pm 14.0 6.4 4.0 51 4.8 WNW 33 54 18 29 1009.1 1008.9 0.0
30/08:20pm 14.0 7.3 3.8 50 4.9 WNW 28 41 15 22 1008.9 1008.7 0.0
30/08:16pm 14.1 1.9 3.8 50 4.9 WNW 57 76 31 41 1009.1 1008.9 0.0
30/08:14pm 14.0 7.0 4.0 51 4.8 WNW 30 61 16 33 1009.3 1009.1 0.0
30/08:00pm 14.5 8.6 3.9 49 5.1 WNW 24 43 13 23 1008.9 1008.7 0.0
30/07:44pm 15.0 8.2 3.2 45 5.6 NW 28 48 15 26 1008.6 1008.3 0.0
30/07:30pm 14.7 9.4 3.2 46 5.5 NW 20 26 11 14 1008.9 1008.7 0.0
30/07:00pm 15.1 5.8 3.0 44 5.8 WNW 41 67 22 36 1009.0 1008.8 0.0
30/06:50pm 15.4 7.2 2.9 43 5.9 WNW 35 54 19 29 1008.9 1008.7 0.0
30/06:30pm 15.5 7.7 2.0 40 6.3 WNW 32 48 17 26 1008.8 1008.6 0.0
30/06:03pm 15.5 8.5 2.0 40 6.3 WNW 28 46 15 25 1009.0 1008.8 0.0
30/06:00pm 15.4 9.1 1.5 39 6.4 WNW 24 39 13 21 1009.0 1008.8 0.0
30/05:36pm 16.4 6.3 0.1 33 7.4 WNW 43 65 23 35 1008.4 1008.2 0.0
30/05:30pm 16.5 6.4 0.2 33 7.4 WNW 43 59 23 32 1008.3 1008.1 0.0
30/05:00pm 17.1 7.4 0.3 32 7.7 WNW 41 72 22 39 1007.9 1007.7 0.0
30/04:30pm 17.7 7.4 0.4 31 8.0 WNW 44 70 24 38 1007.6 1007.3 0.0
30/04:00pm 18.1 8.6 1.6 33 7.8 WNW 41 69 22 37 1007.4 1007.1 0.0
30/03:30pm 18.2 7.6 0.8 31 8.1 WNW 46 69 25 37 1007.5 1007.2 0.0
30/03:00pm 18.7 10.4 2.1 33 8.0 WNW 35 56 19 30 1008.2 1008.0 0.0
30/02:30pm 18.8 9.2 1.3 31 8.3 NW 41 61 22 33 1008.6 1008.3 0.0
30/02:00pm 18.9 10.6 1.9 32 8.2 NW 35 56 19 30 1009.5 1009.3 0.0
30/01:32pm 19.2 11.8 2.1 32 8.2 NW 30 50 16 27 1009.9 1009.7 0.0
30/01:30pm 19.4 12.7 3.6 35 7.8 NW 28 44 15 24 1009.9 1009.7 0.0
30/01:07pm 19.4 11.3 3.2 34 8.0 WNW 35 56 19 30 1010.4 1010.2 0.0
30/01:00pm 19.3 11.8 3.5 35 7.8 WNW 32 48 17 26 1010.4 1010.2 0.0
30/12:33pm 19.3 12.0 4.6 38 7.4 WNW 32 50 17 27 1010.5 1010.3 0.0
30/12:30pm 19.5 11.8 3.6 35 7.9 WNW 33 50 18 27 1010.6 1010.5 0.0
30/12:00pm 19.4 11.1 2.3 32 8.3 WNW 35 50 19 27 1010.9 1010.7 0.0
30/11:30am 19.1 9.8 0.7 29 8.6 WNW 39 59 21 32 1011.1 1010.9 0.0
30/11:00am 18.6 8.4 0.7 30 8.4 WNW 44 67 24 36 1011.0 1010.8 0.0
30/10:30am 19.1 11.6 3.7 36 7.6 WNW 32 56 17 30 1011.7 1011.6 0.0
30/10:27am 19.0 12.1 2.8 34 7.9 WNW 28 50 15 27 1011.7 1011.6 0.0
30/10:00am 18.8 12.4 3.0 35 7.7 W 26 52 14 28 1012.5 1012.4 0.0
30/09:30am 18.5 12.0 4.7 40 7.0 W 28 50 15 27 1012.8 1012.7 0.0
30/09:00am 17.2 10.2 2.0 36 7.2 WNW 28 50 15 27 1013.0 1012.9 0.0
30/08:59am 17.3 10.4 2.5 37 7.1 WNW 28 50 15 27 1013.2 1013.0 0.0
30/08:30am 16.9 12.0 5.2 46 5.9 WNW 20 32 11 17 1013.0 1012.9 0.0
30/08:00am 15.8 10.9 4.2 46 5.7 WNW 19 26 10 14 1012.9 1012.8 0.0
30/07:30am 13.5 9.8 4.6 55 4.3 NNE 13 19 7 10 1012.9 1012.8 0.0
30/07:00am 12.2 8.1 4.2 58 3.8 N 15 19 8 10 1012.9 1012.8 0.0
30/06:30am 10.3 6.0 3.3 62 3.2 NNW 15 20 8 11 1013.2 1013.0 0.0
30/06:00am 9.9 5.1 2.7 61 3.3 N 17 20 9 11 1012.7 1012.6 0.0
30/05:30am 7.4 3.3 2.3 70 2.2 N 13 17 7 9 1012.7 1012.6 0.0
30/05:00am 5.7 3.0 0.3 68 2.2 N 4 11 2 6 1012.7 1012.6 0.0
30/04:30am 9.3 5.6 2.6 63 3.0 N 11 19 6 10 1012.8 1012.7 0.0
30/04:00am 8.2 5.6 0.7 59 3.2 NNW 4 9 2 5 1012.9 1012.8 0.0
30/03:30am 7.3 3.7 0.5 62 2.9 NNW 9 13 5 7 1013.0 1012.9 0.0
30/03:00am 9.7 5.1 1.4 56 3.6 N 15 26 8 14 1013.3 1013.1 0.0
30/02:54am 10.1 6.1 2.9 61 3.3 N 13 22 7 12 1013.4 1013.3 0.0
30/02:30am 4.0 0.0 0.7 79 1.3 NNE 11 15 6 8 1013.8 1013.7 0.0
30/02:00am 4.1 2.2 0.6 78 1.4 CALM 0 0 0 0 1014.2 1014.1 0.0
30/01:30am 3.8 1.8 -0.2 75 1.6 CALM 0 6 0 3 1014.6 1014.5 0.0
30/01:00am 5.2 1.8 -0.8 65 2.4 NNE 7 11 4 6 1014.9 1014.8 0.0
30/12:30am 8.6 5.5 0.3 56 3.5 N 6 11 3 6 1015.0 1014.9 0.0
30/12:00am 8.0 4.2 -0.5 55 3.5 NE 9 15 5 8 1015.3 1015.3 0.0
 
Date/Time
EST
Tmp

°C
App
Tmp
°C
Dew
Point
°C
Rel
Hum
%
Delta-T

°C
Wind Press
QNH
hPa
Press
MSL
hPa
Rain
since
9 am
mm
Dir
 
Spd
km/h
Gust
km/h
Spd
kts
Gust
kts
29/11:30pm 8.8 5.0 -0.5 52 3.9 NNE 9 13 5 7 1015.6 1015.5 0.0
29/11:00pm 10.5 7.1 -0.6 46 4.7 NNE 7 15 4 8 1015.8 1015.7 0.0
29/10:30pm 9.5 5.7 -0.7 49 4.3 NE 9 15 5 8 1016.0 1015.9 0.0
29/10:00pm 10.7 6.2 -0.1 47 4.6 ENE 13 20 7 11 1016.0 1015.9 0.0
29/09:30pm 9.4 4.4 1.1 56 3.6 ENE 17 20 9 11 1016.2 1016.2 0.0
29/09:00pm 8.2 3.9 0.9 60 3.1 NE 13 17 7 9 1015.9 1015.8 0.0
29/08:30pm 9.0 5.5 1.2 58 3.4 N 9 11 5 6 1015.9 1015.8 0.0
29/08:00pm 12.6 9.9 3.5 54 4.3 E 7 11 4 6 1016.1 1016.0 0.0
29/07:30pm 11.5 7.8 -0.3 44 5.1 NNW 9 17 5 9 1015.9 1015.8 0.0
29/07:00pm 14.6 9.7 -0.3 36 6.6 NW 15 20 8 11 1015.8 1015.7 0.0
29/06:30pm 14.0 8.3 -0.4 37 6.3 NNW 19 22 10 12 1015.5 1015.4 0.0
29/06:00pm 16.1 11.4 -1.5 30 7.7 NNW 13 20 7 11 1015.1 1015.0 0.0
29/05:30pm 18.0 13.5 -0.3 29 8.3 NW 13 22 7 12 1014.9 1014.8 0.0
29/05:00pm 18.9 13.1 0.0 28 8.7 NW 20 30 11 16 1014.7 1014.6 0.0
29/04:30pm 20.2 14.6 0.1 26 9.4 NW 19 30 10 16 1014.2 1014.1 0.0
29/04:00pm 20.7 14.7 -3.0 20 10.5 WNW 19 28 10 15 1014.0 1013.9 0.0
29/03:30pm 20.9 13.8 -4.3 18 10.8 WNW 24 37 13 20 1013.7 1013.6 0.0
29/03:00pm 21.6 15.2 -1.6 21 10.6 NW 22 35 12 19 1013.7 1013.6 0.0
29/02:30pm 21.9 15.1 -2.0 20 10.8 WNW 24 37 13 20 1013.7 1013.6 0.0
29/02:00pm 21.6 13.7 -4.5 17 11.3 WNW 28 39 15 21 1013.6 1013.5 0.0
29/01:30pm 22.4 15.6 -1.6 20 11.0 NW 24 37 13 20 1013.5 1013.4 0.0
29/01:00pm 22.4 14.3 -6.4 14 12.1 NW 28 37 15 20 1013.7 1013.6 0.0
29/12:30pm 22.5 16.4 -2.2 19 11.2 NW 20 26 11 14 1013.7 1013.6 0.0
29/12:00pm 22.5 16.2 -3.7 17 11.6 WNW 20 39 11 21 1013.7 1013.6 0.0
29/11:30am 22.1 14.2 -1.9 20 10.9 WNW 30 44 16 24 1013.6 1013.5 0.0
29/11:12am 21.5 13.7 -3.8 18 11.1 WNW 28 46 15 25 1013.6 1013.5 0.0
29/11:00am 21.5 14.7 0.7 25 9.9 WNW 26 37 14 20 1013.7 1013.6 0.0
29/10:30am 21.1 15.2 1.4 27 9.5 NW 22 28 12 15 1014.1 1014.0 0.0
29/10:00am 20.1 15.1 1.5 29 8.9 NW 17 24 9 13 1014.4 1014.3 0.0
29/09:30am 19.6 14.4 3.3 34 8.1 WNW 20 33 11 18 1014.2 1014.1 0.0
29/09:00am 18.5 12.3 2.4 34 7.8 NW 24 33 13 18 1014.2 1014.1 0.0
29/08:30am 17.7 13.1 3.6 39 6.9 W 17 24 9 13 1014.6 1014.5 0.0
29/08:00am 16.6 13.3 4.3 44 6.1 W 11 19 6 10 1014.2 1014.1 0.0
29/07:30am 15.4 11.5 3.5 45 5.7 NW 13 20 7 11 1013.9 1013.8 0.0
29/07:00am 14.3 10.4 3.5 48 5.2 W 13 20 7 11 1014.5 1014.4 0.0
29/06:30am 14.1 8.3 2.4 45 5.4 WNW 22 33 12 18 1013.6 1013.5 0.0
29/06:00am 14.4 5.4 2.3 44 5.6 WNW 39 65 21 35 1012.4 1012.2 0.0
29/05:30am 14.9 5.0 1.8 41 6.1 WNW 43 63 23 34 1012.0 1011.8 0.0
29/05:00am 15.4 3.8 1.9 40 6.3 WNW 52 72 28 39 1011.0 1010.8 0.0
29/04:30am 15.7 4.5 1.8 39 6.5 WNW 50 70 27 38 1010.0 1009.8 0.0
29/04:26am 15.8 5.0 1.9 39 6.5 WNW 48 69 26 37 1009.9 1009.7 0.0
29/04:00am 15.8 8.8 2.2 40 6.4 WNW 28 50 15 27 1010.5 1010.3 0.0
29/03:52am 15.5 8.6 2.3 41 6.2 NW 28 44 15 24 1010.5 1010.3 0.0
29/03:30am 14.1 9.8 3.0 47 5.2 NNW 15 26 8 14 1011.3 1011.1 0.0
29/03:00am 13.9 8.9 3.4 49 5.0 N 19 30 10 16 1012.1 1011.9 0.0
29/02:30am 14.2 7.8 3.4 48 5.1 NNW 26 35 14 19 1012.6 1012.5 0.0
29/02:00am 14.2 7.5 3.4 48 5.1 NNW 28 43 15 23 1013.0 1012.9 0.0
29/01:30am 14.2 9.0 3.4 48 5.1 NNW 20 33 11 18 1013.7 1013.6 0.0
29/01:00am 14.1 8.5 3.6 49 5.0 NNW 22 35 12 19 1013.9 1013.8 0.0
29/12:30am 14.4 8.5 3.8 49 5.1 NNW 24 39 13 21 1014.1 1014.0 0.0
29/12:00am 14.3 8.7 3.7 49 5.1 NNW 22 35 12 19 1014.4 1014.3 0.0
 
Date/Time
EST
Tmp

°C
App
Tmp
°C
Dew
Point
°C
Rel
Hum
%
Delta-T

°C
Wind Press
QNH
hPa
Press
MSL
hPa
Rain
since
9 am
mm
Dir
 
Spd
km/h
Gust
km/h
Spd
kts
Gust
kts
28/11:30pm 14.0 9.2 4.6 53 4.6 NNW 19 26 10 14 1014.9 1014.8 0.0
28/11:00pm 12.6 8.4 5.5 62 3.5 NE 17 24 9 13 1015.0 1014.9 0.0

Latest Capital City Observations: Canberra | Sydney | Melbourne | Brisbane | Adelaide | Perth | Hobart | Darwin

Other Formats:

Comma delimited format used in spreadsheet applications
http://www.bom.gov.au/fwo/IDN60903/IDN60903.94921.axf

JavaScript Object Notation format (JSON) in row-major order
http://www.bom.gov.au/fwo/IDN60903/IDN60903.94921.json